Flag for Belgium Weather past 2 weeks in Ghent, Belgium

Now
80 °F

Warm.


Feels Like: 82 °F
Forecast: 60 / 78 °F
Wind: 3 mph from West

Location: Munte

Current Time: Jul 4, 2015 at 9:03:14 PM

Latest Report: Jul 4, 2015 at 8:00 PM


Visibility: 13 mi

Pressure: 30.13 "Hg

Humidity: 58%

Dew point: 64 °F

Location of GhentLocation

Historic Weather in Ghent — Graph

°F

Ghent temperature yesterday

Maximum temperature yesterday: 86 °F (at 5:00 PM)
Minimum temperature yesterday: 63 °F (at 4:00 AM)
Average temperature yesterday: 75 °F

Past Weeks' High & Low Weather Summary

 TemperatureHumidityPressure
High94 °F (Jul 1, 6:00 PM)100% (Jun 21, 2:00 AM)30.29 "Hg (Jun 21, 2:00 AM)
Low49 °F (Jun 24, 2:00 AM)29% (Jul 1, 6:00 PM)29.76 "Hg (Jun 22, 8:00 PM)
Average67 °F69%30.09 "Hg
* Reported Jun 19 7:00 PM — Jul 4 7:00 PM, Ghent, Weather by CustomWeather, © 2015

Note: Actual official high and low records may vary slightly from our data, if they occured in-between our weather recording intervals... More about our weather records

Advertising

Ghent weather history for previous 24 hours

 ConditionsComfort  
Time TempWeatherWind HumidityBarometerVisibility
7:00 PM
Sat, Jul 4
80 °FWarm.2 mph53%30.12 "Hg12 mi
6:00 PM80 °FWarm.5 mph48%30.14 "Hg12 mi
5:00 PM83 °FWarm.3 mph51%30.12 "Hg12 mi
4:00 PM86 °FPleasantly warm.5 mph40%30.12 "Hg12 mi
3:00 PM88 °FHot.3 mph44%30.10 "Hg12 mi
2:00 PM88 °FHot.2 mph36%30.10 "Hg12 mi
1:00 PM87 °FWarm.N/A46%30.09 "Hg12 mi
12:00 PM87 °FWarm.3 mph50%30.08 "Hg12 mi
11:00 AM86 °FWarm.3 mph53%30.07 "Hg9 mi
10:00 AM84 °FWarm.3 mph58%30.06 "Hg9 mi
9:00 AM81 °FWarm.5 mph63%30.04 "Hg11 mi
8:00 AM79 °FWarm.3 mph65%30.03 "Hg11 mi
7:00 AM76 °FMild.3 mph69%30.01 "Hg12 mi
6:00 AM77 °FWarm.3 mph68%29.99 "Hg11 mi
5:00 AM77 °FWarm.3 mph68%29.99 "Hg9 mi
4:00 AM78 °FWarm.3 mph70%30.00 "Hg9 mi
3:00 AM78 °FWarm.3 mph71%30.02 "Hg9 mi
2:00 AM78 °FWarm.3 mph70%30.04 "Hg11 mi
1:00 AM79 °FWarm.6 mph67%30.07 "Hg11 mi
12:00 AM78 °FWarm.3 mph70%30.09 "Hg12 mi
11:00 PM
Fri, Jul 3
79 °FWarm.3 mph68%30.11 "Hg12 mi
10:00 PM77 °FWarm.N/A72%30.11 "Hg11 mi
9:00 PM80 °FWarm.2 mph66%30.11 "Hg11 mi
Weather by CustomWeather, © 2015

See weather overviewHow to use our weather pages